[[{"header":{"parameterUnit":"m.s-1","parameterCategory":1,"la1":30.2991,"la2":30.254,"lo1":-89.0895,"lo2":-89.0444,"dy":0.0017,"dx":0.0017,"nx":28,"ny":28,"refTime":"2025-03-21T21:00:00:Z","depth":0,"parameterNumber":2,"parameterNumberName":"U-component_of_WINDS"},"data":[0,0,0,0,0,0,0,0,0,0,0,0,0,0,0,0,0,0,0,0,0,0,0,0,0,0,0,0,0,0,0,0,0,0,0,0,0,0,0,0,0,0,0,0,0,0,0,0,0,0,0,0,0,0,0,0,0,0,-0.2785,-0.2786,0,-0.2802,-0.2802,-0.2803,-0.2809,-0.2809,-0.2809,-0.2809,-0.2827,-0.2827,-0.2828,0,0,0,0,0,0,0,0,0,0,0,0,0,-0.276,-0.276,-0.2785,-0.2786,-0.2786,-0.2802,-0.2802,-0.2803,-0.2809,-0.2809,-0.2809,-0.2809,-0.2827,-0.2827,-0.2828,0,0,0,0,0,0,0,0,0,0,0,0,0,-0.2773,-0.276,-0.2785,-0.2791,-0.2792,-0.2802,-0.2802,-0.2803,-0.2809,-0.2809,-0.2809,-0.2809,-0.2827,-0.2827,-0.2828,-0.2834,0,0,-0.283,-0.2831,0,0,0,0,0,0,0,0,-0.2773,-0.2774,-0.279,-0.2791,-0.2791,-0.2804,-0.28,-0.2813,-0.2809,-0.2803,-0.2809,-0.2809,-0.2819,-0.2821,-0.2824,-0.2835,-0.2836,-0.283,-0.2831,-0.2831,-0.2831,0,0,0,0,0,0,0,-0.2772,-0.2774,-0.2792,-0.279,-0.2791,-0.2793,-0.2795,-0.2803,-0.2811,-0.2803,-0.2804,-0.2806,-0.282,-0.2823,-0.2824,-0.2836,-0.283,-0.2831,-0.2832,-0.2832,-0.2854,-0.2854,0,0,0,0,0,0,-0.277,-0.2773,-0.2791,-0.2793,-0.2782,-0.2794,-0.2796,-0.28,-0.2811,-0.2813,-0.2806,-0.2806,-0.2822,-0.2823,-0.2825,-0.2833,-0.2831,-0.2832,-0.2832,-0.2854,-0.2854,-0.2854,0,0,0,0,0,0,-0.2769,-0.2771,-0.2791,-0.2783,-0.2785,-0.2794,-0.2799,-0.28,-0.2804,-0.2813,-0.2815,-0.2808,-0.2822,-0.2824,-0.2832,-0.2834,-0.2832,-0.2833,-0.2853,-0.2854,-0.2854,-0.285,0,0,0,0,0,0,-0.2768,-0.2771,-0.2773,-0.2783,-0.2786,-0.2797,-0.2799,-0.2801,-0.2805,-0.2805,-0.2815,-0.2817,-0.2822,-0.2831,-0.2833,-0.2835,-0.2834,-0.2853,-0.2853,-0.2854,-0.285,-0.285,-0.285,0,0,0,0,0,-0.2767,-0.2771,-0.2773,-0.2775,-0.2789,-0.2797,-0.2799,-0.2805,-0.2805,-0.2807,-0.2814,-0.2816,-0.2833,-0.2832,-0.2834,-0.2836,-0.2853,-0.2853,-0.2854,-0.285,-0.285,-0.285,0,0,0,0,0,0,-0.2762,-0.2773,-0.2775,-0.2782,-0.2789,-0.2798,-0.2801,-0.2805,-0.2811,-0.2812,-0.2819,-0.2821,-0.2828,-0.2833,-0.2831,-0.2843,-0.2844,-0.2844,-0.284,-0.284,-0.284,-0.2839,-0.2834,0,0,0,0,0,-0.2761,-0.2767,-0.2776,-0.2782,-0.2785,-0.2793,-0.2797,-0.2801,-0.2808,-0.2811,-0.2817,-0.2824,-0.2832,-0.2836,-0.2843,-0.285,-0.2853,-0.2853,-0.2853,-0.2853,-0.2854,-0.2859,-0.286,-0.2855,-0.2855,-0.2855,0,0,-0.276,-0.2767,-0.277,-0.2781,-0.2786,-0.2793,-0.2795,-0.2801,-0.2806,-0.2812,-0.282,-0.2825,-0.2833,-0.2841,-0.2845,-0.2846,-0.2856,-0.2854,-0.2854,-0.2854,-0.2859,-0.286,-0.286,-0.2855,-0.2855,-0.2855,0,0,-0.2762,-0.2767,-0.2773,-0.2778,-0.2787,-0.2792,-0.2793,-0.2803,-0.2807,-0.2815,-0.2819,-0.2825,-0.2837,-0.2843,-0.2848,-0.2852,-0.2856,-0.2854,-0.2855,-0.2859,-0.286,-0.286,-0.2862,-0.2863,-0.2855,-0.2855,-0.2855,0,-0.276,-0.2769,-0.2775,-0.2781,-0.2786,-0.2791,-0.2797,-0.2803,-0.2813,-0.2816,-0.2817,-0.2832,-0.2838,-0.2848,-0.2849,-0.2852,-0.2855,-0.2853,-0.2859,-0.286,-0.286,-0.2862,-0.2863,-0.2855,-0.2855,-0.2855,-0.2855,0,-0.2766,-0.2773,-0.2776,-0.2786,-0.2791,-0.2797,-0.2804,-0.2809,-0.2813,-0.2818,-0.2827,-0.2834,-0.2843,-0.2846,-0.2849,-0.2856,-0.2856,-0.2858,-0.2858,-0.286,-0.2863,-0.2863,-0.2855,-0.2855,-0.2855,-0.2855,0,0,-0.2764,-0.2778,-0.2779,-0.2784,-0.2794,-0.2799,-0.2806,-0.2814,-0.2818,-0.2826,-0.2832,-0.2842,-0.2844,-0.2849,-0.2853,-0.2857,-0.2861,-0.2859,-0.2859,-0.2859,-0.287,-0.2869,-0.287,-0.2864,-0.2864,-0.2864,-0.287,0,-0.2767,-0.2779,-0.2785,-0.2794,-0.2801,-0.2806,-0.2812,-0.2819,-0.2824,-0.2831,-0.2837,-0.2844,-0.2846,-0.2849,-0.2853,-0.286,-0.2864,-0.286,-0.287,-0.287,-0.2867,-0.2871,-0.287,-0.2875,-0.287,-0.2871,-0.2871,0,-0.2772,-0.278,-0.2789,-0.28,-0.2802,-0.2807,-0.2816,-0.2822,-0.2831,-0.2834,-0.2841,-0.2845,-0.2853,-0.2853,-0.2864,-0.2861,-0.2865,-0.2869,-0.2869,-0.2871,-0.287,-0.2873,-0.2876,-0.2877,-0.2872,-0.2872,-0.2872,0,-0.277,-0.2783,-0.279,-0.2794,-0.2806,-0.281,-0.2815,-0.2823,-0.2828,-0.2836,-0.2839,-0.2848,-0.2853,-0.286,-0.2866,-0.2866,-0.2877,-0.2877,-0.2881,-0.288,-0.2883,-0.2883,-0.2888,-0.2885,-0.2885,-0.2885,-0.2885,0,-0.2773,-0.2779,-0.279,-0.2794,-0.2801,-0.2809,-0.2815,-0.2821,-0.2829,-0.2835,-0.284,-0.2846,-0.2855,-0.2862,-0.2867,-0.2876,-0.2878,-0.2881,-0.2883,-0.2881,-0.2881,-0.2884,-0.2884,-0.2885,-0.2885,-0.2885,-0.2885,0,-0.2772,-0.2779,-0.2788,-0.2799,-0.2802,-0.2806,-0.2816,-0.2821,-0.2827,-0.2835,-0.2837,-0.2846,-0.2855,-0.2862,-0.2874,-0.2878,-0.2887,-0.2888,-0.2884,-0.2884,-0.2887,-0.2887,-0.2895,-0.2897,-0.2893,-0.2893,-0.2893,0,-0.2774,-0.2779,-0.279,-0.2794,-0.2799,-0.2807,-0.2812,-0.2819,-0.2825,-0.2835,-0.2839,-0.2848,-0.2856,-0.287,-0.2878,-0.2887,-0.2889,-0.2891,-0.289,-0.2888,-0.2889,-0.2889,-0.289,-0.2891,-0.2891,-0.2891,-0.2891,0,-0.2776,-0.2779,-0.2787,-0.2795,-0.2801,-0.2809,-0.2816,-0.282,-0.2829,-0.2834,-0.2843,-0.2849,-0.2861,-0.2871,-0.2881,-0.2886,-0.289,-0.2891,-0.2892,-0.2891,-0.2888,-0.289,-0.2884,-0.2891,-0.2891,-0.2891,-0.2891,-0.2891,-0.2776,-0.2781,-0.279,-0.2798,-0.2804,-0.2811,-0.2817,-0.2824,-0.2831,-0.2841,-0.2845,-0.2855,-0.2864,-0.2878,-0.2884,-0.2891,-0.2892,-0.2894,-0.2894,-0.2895,-0.2895,-0.2887,-0.2893,-0.2893,-0.2893,-0.2893,-0.2893,0,-0.2779,-0.2785,-0.2793,-0.2803,-0.2809,-0.2813,-0.2821,-0.2827,-0.2835,-0.2843,-0.285,-0.2861,-0.287,-0.2879,-0.2889,-0.2893,-0.2896,-0.2896,-0.2896,-0.2897,-0.2893,-0.2891,-0.2894,-0.2894,-0.2894,-0.2894,-0.2894,-0.2894,-0.2781,-0.279,-0.2794,-0.2806,-0.2812,-0.2821,-0.2826,-0.2833,-0.2839,-0.2851,-0.2859,-0.2864,-0.2873,-0.2884,-0.2892,-0.2895,-0.2898,-0.2898,-0.2901,-0.2897,-0.2897,-0.2897,-0.2895,-0.2899,-0.2899,-0.2904,-0.2904,-0.2904]},{"header":{"parameterUnit":"m.s-1","parameterCategory":1,"la1":30.2991,"la2":30.254,"lo1":-89.0895,"lo2":-89.0444,"dy":0.0017,"dx":0.0017,"nx":28,"ny":28,"refTime":"2025-03-21T21:00:00:Z","depth":0,"parameterNumber":3,"parameterNumberName":"V-component_of_WINDS"},"data":[0,0,0,0,0,0,0,0,0,0,0,0,0,0,0,0,0,0,0,0,0,0,0,0,0,0,0,0,0,0,0,0,0,0,0,0,0,0,0,0,0,0,0,0,0,0,0,0,0,0,0,0,0,0,0,0,0,0,5.6194,5.6194,0,5.6193,5.6193,5.6193,5.6154,5.6153,5.6152,5.6151,5.6149,5.615,5.6151,0,0,0,0,0,0,0,0,0,0,0,0,0,5.6163,5.6164,5.6194,5.6194,5.6194,5.6193,5.6193,5.6193,5.6154,5.6153,5.6152,5.6151,5.6149,5.615,5.6151,0,0,0,0,0,0,0,0,0,0,0,0,0,5.6171,5.6164,5.6194,5.6175,5.6173,5.6193,5.6193,5.6193,5.6154,5.6153,5.6151,5.615,5.6148,5.615,5.6151,5.6189,0,0,5.6155,5.6155,0,0,0,0,0,0,0,0,5.617,5.6172,5.6178,5.6176,5.6174,5.6172,5.6181,5.6191,5.6155,5.6162,5.6151,5.6149,5.6158,5.6158,5.6161,5.6189,5.6189,5.6155,5.6156,5.6156,5.6157,0,0,0,0,0,0,0,5.617,5.6172,5.6194,5.6178,5.6176,5.6166,5.6165,5.6183,5.6168,5.6161,5.6158,5.6158,5.6157,5.616,5.6161,5.6189,5.6155,5.6156,5.6157,5.6157,5.6247,5.6248,0,0,0,0,0,0,5.6172,5.6172,5.6194,5.6194,5.6169,5.6168,5.6167,5.6174,5.6168,5.6165,5.616,5.6157,5.6159,5.6159,5.6161,5.6204,5.6156,5.6158,5.6158,5.6245,5.6247,5.6249,0,0,0,0,0,0,5.6172,5.6175,5.6194,5.6182,5.6184,5.617,5.6178,5.6175,5.6178,5.6167,5.6164,5.6166,5.6157,5.6159,5.6182,5.6203,5.6158,5.6159,5.6243,5.6246,5.6248,5.6292,0,0,0,0,0,0,5.6171,5.6175,5.6189,5.6182,5.6184,5.6215,5.618,5.6176,5.6181,5.6177,5.6172,5.617,5.6156,5.618,5.6183,5.6204,5.616,5.6241,5.6244,5.6247,5.6288,5.6295,5.6301,0,0,0,0,0,5.617,5.6201,5.619,5.6193,5.6202,5.6217,5.6218,5.6202,5.6183,5.6197,5.619,5.617,5.6201,5.6183,5.6186,5.6208,5.624,5.6244,5.6247,5.6285,5.6294,5.6301,0,0,0,0,0,0,5.621,5.62,5.6187,5.6217,5.6218,5.621,5.6227,5.6211,5.6217,5.6213,5.6193,5.6193,5.6219,5.6216,5.6196,5.6244,5.6217,5.6221,5.6245,5.6253,5.6259,5.6259,5.6161,0,0,0,0,0,5.6222,5.6235,5.6226,5.6253,5.6254,5.6241,5.6247,5.6235,5.6235,5.6235,5.6229,5.623,5.6239,5.6246,5.6255,5.6288,5.6286,5.6305,5.6311,5.6316,5.632,5.6337,5.6345,5.6261,5.6261,5.6261,0,0,5.6247,5.6244,5.6253,5.6261,5.626,5.6274,5.6241,5.6257,5.6267,5.6237,5.6258,5.6254,5.6254,5.6282,5.6294,5.628,5.6343,5.6321,5.6325,5.6326,5.6342,5.635,5.6357,5.6263,5.6263,5.6262,0,0,5.63,5.6299,5.6322,5.6322,5.6321,5.6312,5.6318,5.6313,5.6309,5.633,5.6308,5.632,5.6337,5.6337,5.634,5.6394,5.6376,5.6398,5.6431,5.6448,5.6455,5.646,5.6479,5.6486,5.6402,5.6402,5.6402,0,5.6332,5.6351,5.6335,5.6352,5.6356,5.6331,5.6353,5.6354,5.6356,5.636,5.6344,5.6366,5.6364,5.6391,5.6405,5.6408,5.6413,5.6397,5.6455,5.6461,5.6466,5.6483,5.649,5.6404,5.6404,5.6404,5.6403,0,5.639,5.6404,5.6422,5.6425,5.6432,5.6451,5.6438,5.6446,5.6434,5.6427,5.6449,5.6446,5.6453,5.6459,5.6447,5.6485,5.6476,5.6459,5.6431,5.6477,5.6493,5.6499,5.6408,5.6407,5.6406,5.6406,0,0,5.6466,5.6461,5.6468,5.6469,5.6467,5.6477,5.6496,5.6504,5.6511,5.6514,5.6529,5.6545,5.6528,5.6531,5.6519,5.6534,5.6577,5.6514,5.6514,5.6525,5.6618,5.6631,5.6639,5.6565,5.6567,5.6567,5.6618,0,5.6517,5.6548,5.6534,5.6567,5.658,5.6557,5.6573,5.6573,5.6568,5.6577,5.6571,5.6582,5.656,5.6561,5.6575,5.6568,5.6595,5.6565,5.6578,5.6579,5.6578,5.6647,5.6661,5.6708,5.6624,5.6625,5.6626,0,5.6579,5.6585,5.6619,5.6615,5.662,5.6635,5.6641,5.6651,5.6651,5.6646,5.665,5.6635,5.6653,5.6626,5.665,5.663,5.6635,5.6633,5.6634,5.6634,5.6604,5.6648,5.6723,5.673,5.6636,5.6635,5.6634,0,5.663,5.6647,5.6669,5.6671,5.6668,5.6679,5.6678,5.6676,5.6682,5.6687,5.669,5.6698,5.6702,5.6708,5.6695,5.6677,5.6721,5.6693,5.6716,5.6717,5.6725,5.6725,5.6801,5.6731,5.6731,5.673,5.673,0,5.6687,5.6709,5.6692,5.6706,5.673,5.6714,5.6738,5.6734,5.6734,5.6746,5.6727,5.6739,5.6722,5.6732,5.6723,5.6744,5.6746,5.6742,5.6739,5.6743,5.6744,5.6745,5.6741,5.6732,5.6732,5.6732,5.6731,0,5.6748,5.6738,5.6761,5.6756,5.6755,5.6772,5.6768,5.678,5.6774,5.679,5.6793,5.6782,5.6793,5.6782,5.6792,5.6786,5.6814,5.6807,5.6814,5.6812,5.6835,5.6833,5.6914,5.6924,5.6848,5.6849,5.685,0,5.6784,5.68,5.6797,5.6804,5.6805,5.6817,5.6822,5.6808,5.6814,5.6816,5.6829,5.6839,5.6845,5.6865,5.6858,5.6866,5.6858,5.6886,5.6859,5.6863,5.6857,5.6856,5.6857,5.6891,5.6892,5.6893,5.6893,0,5.6849,5.6844,5.6853,5.686,5.6868,5.6873,5.6877,5.6884,5.6869,5.6877,5.6889,5.6894,5.6906,5.6915,5.6922,5.692,5.6904,5.6902,5.6908,5.6912,5.6915,5.6913,5.6828,5.69,5.6899,5.6899,5.6899,5.6898,5.6898,5.6911,5.6912,5.6922,5.6924,5.6928,5.6939,5.6934,5.6944,5.6952,5.6943,5.6957,5.6957,5.6964,5.6965,5.6975,5.6963,5.6972,5.6974,5.6976,5.6979,5.6914,5.6977,5.6976,5.6976,5.6976,5.6976,0,5.6962,5.6961,5.6971,5.6977,5.6986,5.6971,5.6974,5.6982,5.6995,5.6997,5.7005,5.7018,5.7028,5.7022,5.703,5.704,5.7033,5.7043,5.7041,5.7041,5.6989,5.6983,5.7048,5.7048,5.7048,5.7048,5.7048,5.7048,5.6996,5.7017,5.7012,5.7034,5.7033,5.7047,5.705,5.7054,5.7055,5.7071,5.708,5.7076,5.7075,5.7083,5.7091,5.7089,5.7093,5.7105,5.71,5.7052,5.7045,5.7038,5.7032,5.7106,5.7106,5.7151,5.7151,5.7152]}]]